Ft Lauderdale, FL

8:45 AM EST on November 23, 2017 (GMT -0500)
Fort Lauderdale-Hollywood International

Weather History for KFLL - October, 2012

Change the Weather History Date:

Friday, October 26, 2012

  Actual Average Record
Temperature  
Mean Temperature 76 °F 79 °F  
Max Temperature 80 °F 84 °F 92 °F (1925)
Min Temperature 71 °F 74 °F 54 °F (2005)
Degree Days  
Heating Degree Days 0 0  
Month to date heating degree days 0 0  
Since 1 July heating degree days 0 0  
Cooling Degree Days 11 14  
Month to date cooling degree days 419 414  
Year to date cooling degree days 4133 4126  
Growing Degree Days 26 (Base 50)    
Moisture  
Dew Point 69 °F    
Average Humidity 76    
Maximum Humidity 94    
Minimum Humidity 58    
Precipitation  
Precipitation 0.42 in 0.18 in 2.60 in (2007)
Month to date precipitation 8.37 5.99  
Year to date precipitation 59.29 55.65  
Snow  
Snow 0.00 in - - ()
Month to date snowfall 0.0  
Since 1 July snowfall 0.0  
Since 1 September snowfall 0.0  
Snow Depth 0.00 in    
Sea Level Pressure  
Sea Level Pressure 29.54 in    
Wind  
Wind Speed 18 mph (NNW)    
Max Wind Speed 32 mph    
Max Gust Speed 45 mph    
Visibility 8 miles    
Events Rain    
T = Trace of Precipitation, MM = Missing Value Source: NWS Daily Summary

Daily Weather History Graph

Daily Weather History Graph

Search for Another Location

Airport or City:

Trip Planner

Search our weather history database for the weather conditions in past years. The results will help you decide how hot, cold, wet, or windy it might be!

Date:

Astronomy

Oct. 26, 2012 Rise Set
Actual Time 7:25 AM EDT 6:42 PM EDT
Civil Twilight 7:02 AM EDT 7:06 PM EDT
Nautical Twilight 6:35 AM EDT 7:33 PM EDT
Astronomical Twilight 6:08 AM EDT 8:00 PM EDT
Moon 4:45 PM EDT (10/26) 4:35 AM EDT (10/26)
Length of Visible Light 12h 03m
Length of Day
11h 16m
Waxing Gibbous, 91% of the Moon is Illuminated
Oct 26
Waxing Gibbous
Oct 29
Full
Nov 6
Last Quarter
Nov 13
New
Nov 20
First Quarter

Hourly Weather History & Observations

Time (EDT) Temp. Heat Index Dew Point Humidity Pressure Visibility Wind Dir Wind Speed Gust Speed Precip Events Conditions
12:53 AM 80.1 °F 81.7 °F 64.0 °F 58% 29.61 in 9.0 mi NNE 19.6 mph 31.1 mph N/A   Overcast
1:47 AM 77.0 °F - 66.2 °F 69% 29.60 in 1.0 mi NNE 29.9 mph 42.6 mph 0.03 in Rain Heavy Rain
1:53 AM 73.0 °F - 68.0 °F 84% 29.59 in 5.0 mi NE 17.3 mph 42.6 mph 0.12 in Rain Light Rain
2:53 AM 79.0 °F - 69.1 °F 72% 29.57 in 9.0 mi NNE 20.7 mph 32.2 mph 0.00 in   Mostly Cloudy
3:53 AM 75.0 °F - 69.1 °F 82% 29.55 in 5.0 mi North 15.0 mph 26.5 mph 0.02 in Rain Light Rain
4:04 AM 73.4 °F - 69.8 °F 88% 29.55 in 1.8 mi NNE 12.7 mph - 0.08 in Rain Rain
4:08 AM 73.4 °F - 69.8 °F 88% 29.56 in 4.0 mi North 12.7 mph 20.7 mph 0.09 in Rain Light Rain
4:53 AM 71.1 °F - 69.1 °F 93% 29.53 in 8.0 mi North 16.1 mph 29.9 mph 0.11 in Rain Light Rain
5:53 AM 72.0 °F - 70.0 °F 93% 29.54 in 9.0 mi NNW 12.7 mph - 0.00 in   Mostly Cloudy
6:53 AM 72.0 °F - 70.0 °F 93% 29.55 in 7.0 mi NNW 13.8 mph - 0.05 in Rain Light Rain
7:53 AM 72.0 °F - 71.1 °F 97% 29.54 in 10.0 mi NW 18.4 mph 23.0 mph 0.01 in   Mostly Cloudy
8:53 AM 71.1 °F - 70.0 °F 96% 29.55 in 8.0 mi NNW 19.6 mph 31.1 mph 0.00 in Rain Light Rain
8:59 AM 71.6 °F - 69.8 °F 94% 29.55 in 2.5 mi NNW 15.0 mph 24.2 mph 0.02 in Rain Rain
9:03 AM 71.6 °F - 69.8 °F 94% 29.56 in 10.0 mi NNW 17.3 mph 24.2 mph 0.03 in Rain Rain
9:41 AM 71.6 °F - 69.8 °F 94% 29.55 in 10.0 mi NW 18.4 mph - 0.04 in Rain Light Rain
9:53 AM 72.0 °F - 70.0 °F 93% 29.56 in 10.0 mi NW 19.6 mph 27.6 mph 0.04 in Rain Light Rain
10:12 AM 71.6 °F - 71.6 °F 100% 29.56 in 4.0 mi NW 15.0 mph - 0.04 in Rain Rain
10:53 AM 73.0 °F - 72.0 °F 96% 29.56 in 7.0 mi NNW 16.1 mph - 0.04 in   Mostly Cloudy
11:29 AM 75.2 °F - 71.6 °F 89% 29.54 in 9.0 mi NNW 15.0 mph 24.2 mph 0.00 in Rain Light Rain
11:53 AM 75.9 °F - 73.9 °F 94% 29.54 in 10.0 mi NW 13.8 mph - 0.03 in   Scattered Clouds
12:53 PM 75.9 °F - 73.0 °F 91% 29.53 in 9.0 mi NNW 24.2 mph 38.0 mph 0.00 in Rain Light Rain
1:40 PM 75.2 °F - 71.6 °F 89% 29.51 in 5.0 mi NNW 25.3 mph 42.6 mph 0.00 in Rain Light Rain
1:53 PM 75.9 °F - 70.0 °F 82% 29.50 in 10.0 mi NW 23.0 mph 32.2 mph 0.00 in   Mostly Cloudy
2:01 PM 77.0 °F - 69.8 °F 78% 29.50 in 10.0 mi NNW 26.5 mph 33.4 mph N/A   Overcast
2:53 PM 78.1 °F - 69.1 °F 74% 29.48 in 10.0 mi NW 16.1 mph 31.1 mph N/A   Mostly Cloudy
3:53 PM 80.1 °F 82.3 °F 66.9 °F 64% 29.47 in 10.0 mi NNW 21.9 mph 33.4 mph 0.00 in   Overcast
4:53 PM 78.1 °F - 69.1 °F 74% 29.47 in 10.0 mi NW 17.3 mph 28.8 mph 0.00 in   Mostly Cloudy
5:53 PM 77.0 °F - 68.0 °F 74% 29.48 in 10.0 mi NW 19.6 mph 28.8 mph 0.00 in   Mostly Cloudy
6:53 PM 73.9 °F - 66.9 °F 79% 29.50 in 10.0 mi NW 17.3 mph 28.8 mph N/A   Scattered Clouds
7:53 PM 73.9 °F - 66.9 °F 79% 29.51 in 10.0 mi WNW 18.4 mph 27.6 mph N/A   Partly Cloudy
8:53 PM 73.9 °F - 66.0 °F 76% 29.52 in 10.0 mi NW 20.7 mph 29.9 mph N/A   Scattered Clouds
9:53 PM 73.0 °F - 66.9 °F 81% 29.54 in 10.0 mi NW 16.1 mph 31.1 mph 0.00 in   Scattered Clouds
10:53 PM 73.0 °F - 66.9 °F 81% 29.54 in 10.0 mi WNW 18.4 mph 27.6 mph N/A   Mostly Cloudy
11:49 PM 73.4 °F - 66.2 °F 78% 29.54 in 10.0 mi WNW 16.1 mph 33.4 mph N/A   Overcast
11:53 PM 73.0 °F - 66.9 °F 81% 29.54 in 10.0 mi WNW 18.4 mph 33.4 mph N/A   Overcast